Location: Sternwarte Stuttgart
(48.7670°N, 9.1830°E)
Time: 17:11:33
(UTC+02:00)

Lacrosse 4 Rocket - Pass Details

Date: 24 January 2019
Orbit: 538 x 621 km, 68.0° (Epoch: 17 April)

Event Time Altitude Azimuth Distance (km) Brightness Sun altitude
Exits shadow 06:38:23 11° 235° (SW) 1,864 3.6 -13.9°
Drops below altitude 10° 06:38:38 10° 232° (SW) 1,901 3.7 -13.8°
Sets 06:42:14 0° 201° (SSW) 2,830 4.9 -13.2°
